Time,TemperatureF,DewpointF,PressureIn,WindDirection,WindDirectionDegrees,WindSpeedMPH,WindSpeedGustMPH,Humidity,HourlyPrecipIn,Conditions,Clouds,dailyrainin,SolarRadiationWatts/m^2,SoftwareType,DateUTC
2013-04-30 00:04:00,51.2,48.0,30.11,ESE,113,8.0,13.0,87,0.00,,,0.04,0,weatherlink.com 1.10,2013-04-30 04:04:00,
2013-04-30 00:19:00,51.2,48.0,30.11,SSE,159,3.0,13.0,87,0.00,,,0.04,0,weatherlink.com 1.10,2013-04-30 04:19:00,
2013-04-30 00:34:00,51.3,48.0,30.12,SE,132,5.0,11.0,87,0.00,,,0.04,0,weatherlink.com 1.10,2013-04-30 04:34:00,
2013-04-30 00:49:00,51.3,48.0,30.12,ESE,119,4.0,9.0,87,0.00,,,0.04,0,weatherlink.com 1.10,2013-04-30 04:49:00,
2013-04-30 01:04:00,51.3,48.0,30.12,SE,133,3.0,8.0,87,0.00,,,0.04,0,weatherlink.com 1.10,2013-04-30 05:04:00,
2013-04-30 01:19:00,51.3,48.0,30.12,SE,136,2.0,8.0,87,0.00,,,0.04,0,weatherlink.com 1.10,2013-04-30 05:19:00,
2013-04-30 01:34:00,51.2,48.0,30.12,SE,144,4.0,7.0,88,0.00,,,0.04,0,weatherlink.com 1.10,2013-04-30 05:34:00,
2013-04-30 01:49:00,51.2,48.0,30.11,SE,128,8.0,9.0,88,0.00,,,0.04,0,weatherlink.com 1.10,2013-04-30 05:49:00,
2013-04-30 02:04:00,51.4,48.0,30.11,SE,141,6.0,13.0,88,0.00,,,0.04,0,weatherlink.com 1.10,2013-04-30 06:04:00,
2013-04-30 02:19:00,51.5,48.0,30.11,SSW,207,3.0,12.0,88,0.00,,,0.04,0,weatherlink.com 1.10,2013-04-30 06:19:00,
2013-04-30 02:34:00,51.6,48.0,30.12,SSE,148,1.0,12.0,88,0.00,,,0.04,0,weatherlink.com 1.10,2013-04-30 06:34:00,
2013-04-30 02:49:00,51.5,48.0,30.12,SE,135,6.0,11.0,88,0.00,,,0.04,0,weatherlink.com 1.10,2013-04-30 06:49:00,
2013-04-30 03:04:00,51.5,48.0,30.12,SSE,158,2.0,7.0,88,0.00,,,0.04,0,weatherlink.com 1.10,2013-04-30 07:04:00,
2013-04-30 03:19:00,51.4,48.0,30.12,SE,134,4.0,6.0,88,0.00,,,0.00,0,weatherlink.com 1.10,2013-04-30 07:19:00,
2013-04-30 03:34:00,51.4,48.0,30.12,ESE,122,2.0,7.0,88,0.00,,,0.00,0,weatherlink.com 1.10,2013-04-30 07:34:00,
2013-04-30 03:49:00,51.3,48.0,30.13,SE,134,1.0,7.0,88,0.00,,,0.00,0,weatherlink.com 1.10,2013-04-30 07:49:00,
2013-04-30 04:04:00,51.3,48.0,30.13,ESE,123,3.0,8.0,89,0.00,,,0.00,0,weatherlink.com 1.10,2013-04-30 08:04:00,
2013-04-30 04:19:00,51.3,48.0,30.14,SE,127,2.0,6.0,89,0.00,,,0.00,0,weatherlink.com 1.10,2013-04-30 08:19:00,
2013-04-30 04:34:00,51.3,48.0,30.15,SE,132,0.0,3.0,89,0.00,,,0.00,0,weatherlink.com 1.10,2013-04-30 08:34:00,
2013-04-30 04:49:00,51.2,48.0,30.16,SE,132,0.0,2.0,89,0.00,,,0.00,0,weatherlink.com 1.10,2013-04-30 08:49:00,
2013-04-30 05:04:00,51.1,48.0,30.16,SE,132,1.0,3.0,89,0.00,,,0.00,0,weatherlink.com 1.10,2013-04-30 09:04:00,
2013-04-30 05:19:00,51.1,48.0,30.16,SE,132,2.0,2.0,89,0.00,,,0.00,0,weatherlink.com 1.10,2013-04-30 09:19:00,
2013-04-30 05:34:00,51.2,48.0,30.17,SE,144,5.0,6.0,89,0.00,,,0.00,0,weatherlink.com 1.10,2013-04-30 09:34:00,
2013-04-30 05:49:00,51.2,48.0,30.17,SSE,150,3.0,6.0,89,0.00,,,0.00,0,weatherlink.com 1.10,2013-04-30 09:49:00,
2013-04-30 06:05:00,51.2,48.0,30.18,South,172,4.0,11.0,90,0.00,,,0.00,0,weatherlink.com 1.10,2013-04-30 10:05:00,
2013-04-30 06:20:00,51.0,49.0,30.18,SSE,155,1.0,9.0,91,0.00,,,0.00,7,weatherlink.com 1.10,2013-04-30 10:20:00,
2013-04-30 06:35:00,51.0,49.0,30.19,SE,144,2.0,4.0,91,0.00,,,0.00,11,weatherlink.com 1.10,2013-04-30 10:35:00,
2013-04-30 06:50:00,50.9,49.0,30.19,SE,138,1.0,3.0,92,0.00,,,0.00,25,weatherlink.com 1.10,2013-04-30 10:50:00,
2013-04-30 07:05:00,50.9,49.0,30.19,SE,129,3.0,5.0,92,0.00,,,0.00,30,weatherlink.com 1.10,2013-04-30 11:05:00,
2013-04-30 07:20:00,51.2,49.0,30.19,SE,124,5.0,7.0,92,0.00,,,0.00,53,weatherlink.com 1.10,2013-04-30 11:20:00,
2013-04-30 07:35:00,51.5,49.0,30.19,SE,126,2.0,8.0,92,0.00,,,0.00,70,weatherlink.com 1.10,2013-04-30 11:35:00,
2013-04-30 07:50:00,52.0,49.0,30.19,ESE,123,5.0,9.0,90,0.00,,,0.00,102,weatherlink.com 1.10,2013-04-30 11:50:00,
2013-04-30 08:05:00,52.7,50.0,30.19,ESE,121,8.0,10.0,89,0.00,,,0.00,142,weatherlink.com 1.10,2013-04-30 12:05:00,
2013-04-30 08:20:00,53.3,50.0,30.19,SE,132,6.0,12.0,88,0.00,,,0.00,153,weatherlink.com 1.10,2013-04-30 12:20:00,
2013-04-30 08:35:00,54.0,50.0,30.19,SSE,159,8.0,14.0,87,0.00,,,0.00,190,weatherlink.com 1.10,2013-04-30 12:35:00,
2013-04-30 08:50:00,54.2,50.0,30.20,SSE,159,8.0,13.0,85,0.00,,,0.00,183,weatherlink.com 1.10,2013-04-30 12:50:00,
2013-04-30 09:05:00,54.6,50.0,30.20,SE,134,4.0,15.0,85,0.00,,,0.00,185,weatherlink.com 1.10,2013-04-30 13:05:00,
2013-04-30 09:20:00,55.0,50.0,30.20,SE,137,11.0,17.0,84,0.00,,,0.00,169,weatherlink.com 1.10,2013-04-30 13:20:00,
2013-04-30 09:35:00,55.5,51.0,30.20,SE,132,8.0,10.0,84,0.00,,,0.00,188,weatherlink.com 1.10,2013-04-30 13:35:00,
2013-04-30 09:50:00,56.2,50.0,30.20,SE,140,7.0,13.0,81,0.00,,,0.00,220,weatherlink.com 1.10,2013-04-30 13:50:00,
2013-04-30 10:05:00,57.2,50.0,30.19,SE,142,12.0,12.0,78,0.00,,,0.00,258,weatherlink.com 1.10,2013-04-30 14:05:00,
2013-04-30 10:20:00,58.3,51.0,30.19,SSE,150,3.0,14.0,77,0.00,,,0.00,294,weatherlink.com 1.10,2013-04-30 14:20:00,
2013-04-30 10:35:00,59.3,51.0,30.19,SE,137,3.0,14.0,74,0.00,,,0.00,357,weatherlink.com 1.10,2013-04-30 14:35:00,
2013-04-30 10:50:00,60.7,52.0,30.19,SSE,166,4.0,11.0,73,0.00,,,0.00,418,weatherlink.com 1.10,2013-04-30 14:50:00,
2013-04-30 11:06:00,61.9,52.0,30.18,South,173,3.0,9.0,71,0.00,,,0.00,452,weatherlink.com 1.10,2013-04-30 15:06:00,
2013-04-30 11:21:00,62.6,52.0,30.18,SE,127,5.0,11.0,69,0.00,,,0.00,445,weatherlink.com 1.10,2013-04-30 15:21:00,
2013-04-30 11:36:00,62.7,52.0,30.19,SSE,151,6.0,12.0,68,0.00,,,0.00,404,weatherlink.com 1.10,2013-04-30 15:36:00,
2013-04-30 11:51:00,62.5,52.0,30.19,SE,139,4.0,13.0,68,0.00,,,0.00,387,weatherlink.com 1.10,2013-04-30 15:51:00,
2013-04-30 12:06:00,63.3,52.0,30.19,SSE,167,4.0,14.0,66,0.00,,,0.00,360,weatherlink.com 1.10,2013-04-30 16:06:00,
2013-04-30 12:21:00,63.3,51.0,30.20,SSE,157,2.0,9.0,65,0.00,,,0.00,214,weatherlink.com 1.10,2013-04-30 16:21:00,
2013-04-30 12:36:00,63.0,52.0,30.19,SW,236,4.0,8.0,67,0.00,,,0.00,320,weatherlink.com 1.10,2013-04-30 16:36:00,
2013-04-30 12:51:00,63.4,53.0,30.19,South,184,9.0,10.0,68,0.00,,,0.00,410,weatherlink.com 1.10,2013-04-30 16:51:00,
2013-04-30 13:06:00,64.4,51.0,30.19,SW,221,2.0,9.0,63,0.00,,,0.00,318,weatherlink.com 1.10,2013-04-30 17:06:00,
2013-04-30 13:21:00,64.0,51.0,30.19,South,173,5.0,11.0,64,0.00,,,0.00,285,weatherlink.com 1.10,2013-04-30 17:21:00,
2013-04-30 13:36:00,63.4,51.0,30.20,South,178,5.0,9.0,65,0.00,,,0.00,163,weatherlink.com 1.10,2013-04-30 17:36:00,
2013-04-30 13:51:00,63.0,51.0,30.20,SSW,213,3.0,8.0,66,0.00,,,0.00,237,weatherlink.com 1.10,2013-04-30 17:51:00,
2013-04-30 14:06:00,63.1,51.0,30.21,SSW,212,3.0,9.0,65,0.00,,,0.00,294,weatherlink.com 1.10,2013-04-30 18:06:00,
2013-04-30 14:21:00,63.2,52.0,30.21,SSW,213,2.0,12.0,66,0.00,,,0.00,304,weatherlink.com 1.10,2013-04-30 18:21:00,
2013-04-30 14:36:00,63.1,51.0,30.21,SW,227,2.0,12.0,66,0.00,,,0.00,348,weatherlink.com 1.10,2013-04-30 18:36:00,
2013-04-30 14:51:00,63.8,51.0,30.21,South,190,3.0,9.0,64,0.00,,,0.00,446,weatherlink.com 1.10,2013-04-30 18:51:00,
2013-04-30 15:06:00,64.4,51.0,30.21,SW,215,6.0,9.0,63,0.00,,,0.00,638,weatherlink.com 1.10,2013-04-30 19:06:00,
2013-04-30 15:21:00,64.2,51.0,30.21,SW,225,5.0,12.0,63,0.00,,,0.00,309,weatherlink.com 1.10,2013-04-30 19:21:00,
2013-04-30 15:36:00,64.2,51.0,30.21,SW,236,7.0,15.0,62,0.00,,,0.00,615,weatherlink.com 1.10,2013-04-30 19:36:00,
2013-04-30 15:51:00,64.9,51.0,30.21,WSW,244,8.0,14.0,61,0.00,,,0.00,301,weatherlink.com 1.10,2013-04-30 19:51:00,
2013-04-30 16:06:00,65.7,51.0,30.21,WSW,247,7.0,11.0,60,0.00,,,0.00,789,weatherlink.com 1.10,2013-04-30 20:06:00,
2013-04-30 16:21:00,65.4,51.0,30.21,SW,221,3.0,9.0,60,0.00,,,0.00,733,weatherlink.com 1.10,2013-04-30 20:21:00,
2013-04-30 16:36:00,65.7,52.0,30.20,SW,234,6.0,13.0,62,0.00,,,0.00,234,weatherlink.com 1.10,2013-04-30 20:36:00,
2013-04-30 16:51:00,65.4,51.0,30.20,South,189,5.0,9.0,61,0.00,,,0.00,366,weatherlink.com 1.10,2013-04-30 20:51:00,
2013-04-30 17:06:00,65.0,51.0,30.20,WSW,252,8.0,10.0,61,0.00,,,0.00,295,weatherlink.com 1.10,2013-04-30 21:06:00,
2013-04-30 17:21:00,66.6,53.0,30.20,SW,232,12.0,13.0,62,0.00,,,0.00,747,weatherlink.com 1.10,2013-04-30 21:21:00,
2013-04-30 17:36:00,66.9,53.0,30.20,SSW,213,1.0,13.0,61,0.00,,,0.00,229,weatherlink.com 1.10,2013-04-30 21:36:00,
2013-04-30 17:51:00,66.2,51.0,30.20,SW,223,2.0,9.0,59,0.00,,,0.00,557,weatherlink.com 1.10,2013-04-30 21:51:00,
2013-04-30 18:06:00,65.8,51.0,30.20,South,175,5.0,10.0,59,0.00,,,0.00,436,weatherlink.com 1.10,2013-04-30 22:06:00,
2013-04-30 18:21:00,66.0,52.0,30.20,SSE,150,4.0,9.0,60,0.00,,,0.00,355,weatherlink.com 1.10,2013-04-30 22:21:00,
2013-04-30 18:36:00,65.7,51.0,30.20,SSW,205,2.0,9.0,60,0.00,,,0.00,285,weatherlink.com 1.10,2013-04-30 22:36:00,
2013-04-30 18:51:00,65.2,51.0,30.20,SSE,158,3.0,7.0,61,0.00,,,0.00,213,weatherlink.com 1.10,2013-04-30 22:51:00,
2013-04-30 19:06:00,64.6,51.0,30.20,SW,225,3.0,7.0,61,0.00,,,0.00,37,weatherlink.com 1.10,2013-04-30 23:06:00,
2013-04-30 19:21:00,63.4,50.0,30.20,South,189,0.0,7.0,63,0.00,,,0.00,25,weatherlink.com 1.10,2013-04-30 23:21:00,
2013-04-30 19:36:00,62.7,50.0,30.19,South,186,0.0,4.0,64,0.00,,,0.00,14,weatherlink.com 1.10,2013-04-30 23:36:00,
2013-04-30 19:51:00,61.7,50.0,30.20,SSE,158,0.0,5.0,66,0.00,,,0.00,5,weatherlink.com 1.10,2013-04-30 23:51:00,
2013-04-30 20:06:00,61.0,50.0,30.20,SSE,158,0.0,2.0,67,0.00,,,0.00,0,weatherlink.com 1.10,2013-05-01 00:06:00,
2013-04-30 20:21:00,60.4,50.0,30.21,South,188,0.0,4.0,68,0.00,,,0.00,0,weatherlink.com 1.10,2013-05-01 00:21:00,
2013-04-30 20:36:00,60.1,50.0,30.21,SSW,198,3.0,7.0,69,0.00,,,0.00,0,weatherlink.com 1.10,2013-05-01 00:36:00,
2013-04-30 20:51:00,59.3,50.0,30.21,South,184,0.0,6.0,70,0.00,,,0.00,0,weatherlink.com 1.10,2013-05-01 00:51:00,
2013-04-30 21:06:00,58.7,49.0,30.21,South,182,1.0,5.0,71,0.00,,,0.00,0,weatherlink.com 1.10,2013-05-01 01:06:00,
2013-04-30 21:21:00,58.1,49.0,30.21,SW,234,0.0,4.0,72,0.00,,,0.00,0,weatherlink.com 1.10,2013-05-01 01:21:00,
2013-04-30 21:36:00,57.9,49.0,30.21,SSW,194,0.0,4.0,72,0.00,,,0.00,0,weatherlink.com 1.10,2013-05-01 01:36:00,
2013-04-30 21:51:00,57.5,49.0,30.22,SW,226,2.0,5.0,73,0.00,,,0.00,0,weatherlink.com 1.10,2013-05-01 01:51:00,
2013-04-30 22:06:00,57.1,49.0,30.22,South,188,0.0,4.0,74,0.00,,,0.00,0,weatherlink.com 1.10,2013-05-01 02:06:00,
2013-04-30 22:21:00,56.7,49.0,30.21,SSE,148,2.0,4.0,75,0.00,,,0.00,0,weatherlink.com 1.10,2013-05-01 02:21:00,
2013-04-30 22:36:00,55.8,49.0,30.21,South,191,3.0,6.0,77,0.00,,,0.00,0,weatherlink.com 1.10,2013-05-01 02:36:00,
2013-04-30 22:51:00,55.8,49.0,30.21,South,178,4.0,9.0,77,0.00,,,0.00,0,weatherlink.com 1.10,2013-05-01 02:51:00,
2013-04-30 23:06:00,55.8,48.0,30.21,South,184,0.0,8.0,76,0.00,,,0.00,0,weatherlink.com 1.10,2013-05-01 03:06:00,
2013-04-30 23:21:00,55.8,48.0,30.21,South,170,0.0,4.0,75,0.00,,,0.00,0,weatherlink.com 1.10,2013-05-01 03:21:00,
2013-04-30 23:36:00,55.5,48.0,30.21,SSE,162,1.0,4.0,75,0.00,,,0.00,0,weatherlink.com 1.10,2013-05-01 03:36:00,
2013-04-30 23:51:00,55.2,48.0,30.22,South,174,0.0,4.0,76,0.00,,,0.00,0,weatherlink.com 1.10,2013-05-01 03:51:00,